Showing default

COSMOS 2273, 23004

Orbit data source: Space-Track

COSMOS 2273, 23004 is a payload satellite owned by VKS (CIS) in LEO that was launched on Sat, 12 Feb 1994 UTC via a TSIKLON-3 launch vehicle from the Plesetsk Missile And Space Complex (PKMTR). Payload-class satellites include a variety of spacecraft equipped with specific instruments for various scientific and technological missions. These include communications satellites like Starlink; space stations such as the ISS; scientific satellites like the Hubble; Earth observation satellites from companies like Planet Labs, Umbra, and HawkEye 360; GPS; miniature CubeSats for education and research; and military/defense satellites.

Loading next visibility...
Identifier
23004, 1994-011F
Orbit
LEO
Country
Flag of CISCIS
Related business
Manufacturer
NPO PM
Mission
Defense Communications
Bus & Motor
STRELA-3, Unknown motor
Mass
225 kg wet, 225 kg dry
Launch date (UTC)
1994-02-12 (32 years ago)
Launch vehicle
TSIKLON-3
Launch site
Plesetsk Missile And Space Complex (PKMTR)
Object type
Payload
Rocket body
Debris
Shape & HBR
Cyl, 0.8 m
Radar Cross Section
1.257 m², Medium (>0.1 m² and < 1m²)

Expand to show TLE details & history
Last TLE update: 1 day ago

TLE from 1 day ago
0 COSMOS 2273
1 23004U 94011F   25260.69987596  .00000030  00000-0  10882-3 0  9993
2 23004  82.5734 129.1991 0006083  85.5588 337.9652 12.62909900456354
Epoch: 2025-09-17T16:47Z
TLE epoch observation values (Epoch: 2025-09-17T16:47:49.282Z)
Latitude
62.63439°
Longitude
-105.11554°
Altitude
1,417.279 km
Speed
7.16 km/s
True Right ascension
09h 34m 50s
True Declination
62° 30' 20"
Sunlit
Object was in daylight at epoch
Visualization orbit readout
Latitude
Unknown
Longitude
Unknown
Altitude
Unknown
Speed
Unknown
Apparent Right ascension
Unknown
Apparent Declination
Unknown
Sunlit
N/A
Visualization observer readout
Local Sidereal Time
13:45:06
Azimuth
Unknown
Elevation
Unknown
Doppler factor
Unknown
Orbital elements
Apogee altitude
1,413.013 km
Perigee altitude
1,403.54 km
Semi-major axis
7,786.414 km
Eccentricity
0.00061
Inclination
82.5734°
RAAN
129.1991°
Arg. of periapsis
85.5588°
True anomaly
337.93903°
Mean anomaly
337.9652°
Eccentric anomaly
337.95212°
Mean motion
3.15891 °/min
Orbital period
113.96 mins
BSTAR
0.00010882
Loading maneuver chart data...
Computing Atmospheric mass density...
Loading historical data...
Loading historical data...
Loading historical data...
Loading historical data...
Loading historical data...
Loading historical data...
Loading historical data...

Documentation

Showing up to 5 results
|